#timestamp,LO_Frequency,Hit,StdDev 
1509368415.2,286047000.3,N
1509368435.0,286047000.5,N
1509368435.9,286047000.5,N
1509368455.8,286047000.5,N
1509368475.6,286047000.4,N
1509368495.4,286046999.7,N
1509368515.3,286047000.9,N
1509368535.1,286046999.9,N
1509368555.9,286046998.2,N
1509368575.7,286046998.6,N
1509368595.5,286046997.0,N
1509368615.4,286046996.5,N
1509368635.2,286046999.3,N
1509368655.0,286046999.6,N
1509368655.9,286046999.6,N
1509368675.8,286046994.9,N
1509368695.6,286046997.2,N
1509368715.5,286046998.7,N
1509368735.3,286046998.2,N
1509368755.1,286047001.1,N
1509368775.9,286046999.1,N
1509368795.7,286046999.2,N
1509368815.5,286046998.8,N
1509368835.4,286046998.9,N
1509368855.2,286046999.3,N
1509368875.0,286046999.3,N
1509368876.0,286046999.3,N
1509368895.8,286046996.7,N
1509368915.6,286046996.8,N
1509368935.5,286046995.0,Y
1509368955.3,286046999.1,P
1509368975.1,286046997.6,P
1509368995.9,286046995.3,P
1509369015.7,286046997.5,N
1509369035.6,286046999.6,N
1509369055.4,286046995.0,Y
1509369075.2,286046999.2,P
1509369095.1,286046998.6,N
1509369096.0,286046998.6,N
1509369115.8,286047001.2,N
1509369135.6,286046998.9,N
1509369155.5,286047000.7,N
1509369175.3,286046998.9,N
1509369195.2,286046999.1,N
1509369215.9,286046997.2,N
1509369235.7,286046996.6,Y
1509369255.6,286046996.6,P
1509369275.4,286046998.4,N
1509369295.3,286046998.9,N
1509369315.1,286046997.2,N
1509369316.0,286046997.2,N
1509369335.8,286046995.0,Y
1509369355.7,286046998.3,P
1509369375.5,286046998.7,P
1509369395.3,286046998.5,P
1509369415.2,286046998.1,Y
1509369435.0,286046999.8,P
1509369435.9,286046999.8,N
1509369455.8,286047002.4,P
1509369475.6,286047001.5,N
1509369495.4,286047001.4,N
1509369515.3,286047004.4,Y
1509369535.1,286047002.4,P
1509369555.9,286047002.8,N
1509369575.7,286047002.8,N
1509369595.5,286047000.5,N
1509369615.4,286047002.7,N
1509369635.2,286047002.4,N
1509369655.0,286047002.4,N
1509369655.9,286047002.4,N
1509369675.8,286047001.4,N
1509369695.6,286047002.7,Y
1509369715.5,286046999.0,P
1509369735.3,286046997.0,N
1509369755.1,286047000.0,N
1509369775.9,286047001.0,N
1509369795.7,286046996.5,N
1509369815.6,286046996.6,N
1509369835.4,286046998.2,N
1509369855.2,286047000.9,N
1509369875.1,286047000.6,N
1509369876.0,286047000.6,N
1509369895.8,286046998.9,N
1509369915.6,286047000.5,N
1509369935.5,286047004.0,N
1509369955.3,286047007.4,Y
1509369975.2,286047013.9,P
1509369995.9,286047016.5,N
1509370015.7,286047015.0,N
1509370035.6,286047015.1,N
1509370055.4,286047011.0,N
1509370075.2,286047011.4,N
1509370095.1,286047012.1,N
1509370096.0,286047012.1,N
1509370115.8,286047011.1,N
1509370135.6,286047012.3,N
1509370155.5,286047010.8,N
1509370175.3,286047009.4,N
1509370195.2,286047008.2,N
1509370215.9,286047012.2,Y
1509370235.7,286047003.8,P
1509370255.6,286047005.2,N
1509370275.4,286047003.4,N
1509370295.2,286047001.9,N
1509370315.1,286047000.4,N
1509370316.0,286047000.4,N
1509370335.8,286046998.3,N
1509370355.7,286046998.3,N
1509370375.5,286046996.5,N
1509370395.3,286046997.0,N
1509370415.2,286046997.8,N
1509370435.0,286046996.8,N
1509370435.9,286046996.8,N
1509370455.8,286046997.0,N
1509370475.6,286046997.6,N
1509370495.4,286047001.2,N
1509370515.3,286046998.8,N
1509370535.1,286046999.0,N
1509370555.8,286046997.3,N
1509370575.7,286046999.6,N
1509370595.5,286046999.2,N
1509370615.4,286046999.1,N
1509370635.2,286046997.4,N
1509370655.0,286046996.3,N
1509370655.9,286046996.3,N
1509370675.8,286046993.8,N
1509370695.6,286046994.0,N
1509370715.5,286046994.6,N
1509370735.3,286046994.7,N
1509370755.1,286046994.8,N
1509370775.9,286046994.6,N
1509370795.7,286046995.6,N
1509370815.5,286046991.9,Y
1509370835.4,286046998.0,P
1509370855.2,286046997.3,P
1509370875.1,286046996.8,P
1509370876.0,286046996.8,Y
1509370895.8,286046998.3,P
1509370915.6,286046998.5,P
1509370935.5,286047000.1,N
1509370955.3,286047003.0,Y
1509370975.2,286047008.3,P
1509370995.9,286047008.4,N
1509371015.7,286047008.4,N
1509371035.6,286047006.5,N
1509371055.4,286047006.5,N
1509371075.2,286047005.2,N
1509371095.1,286047006.0,N
1509371096.0,286047006.0,N
1509371115.8,286047002.5,N
1509371135.7,286047001.9,N
1509371155.5,286047006.0,N
1509371175.3,286047003.5,N
1509371195.2,286047003.8,N
1509371215.9,286047003.5,N
1509371235.7,286047004.3,N
1509371255.6,286047004.5,N
1509371275.4,286047003.1,N
1509371295.3,286047003.8,N
1509371315.1,286047001.3,N
1509371316.0,286047001.3,N
1509371335.8,286047001.9,N
1509371355.7,286047002.4,N
1509371375.5,286047001.0,N
1509371395.3,286047000.8,N
1509371415.2,286047000.1,N
1509371435.0,286046999.7,N
1509371435.9,286046999.7,N
1509371455.8,286047002.6,N
1509371475.6,286047002.0,N
1509371495.4,286047003.9,N
1509371515.3,286047002.1,N
1509371535.1,286047000.1,N
1509371555.8,286047001.3,N
1509371575.7,286047004.2,N
1509371595.5,286047002.5,N
1509371615.4,286047000.9,N
1509371635.2,286047000.2,N
1509371655.0,286047002.7,N
1509371655.9,286047002.7,N
1509371675.8,286047002.0,N
1509371695.6,286047003.5,N
1509371715.5,286047001.7,N
1509371735.3,286047002.8,N
1509371755.1,286047000.4,N
1509371775.9,286047000.5,N
1509371795.7,286047000.8,N
1509371815.5,286046998.7,N
1509371835.4,286046999.9,N
1509371855.2,286047001.9,N
1509371875.1,286047003.9,N
1509371876.0,286047003.9,N
1509371895.8,286047002.4,N
1509371915.6,286047001.4,N
1509371935.5,286047002.5,N
1509371955.3,286047000.8,N
1509371975.1,286046999.9,N
1509371995.9,286047001.4,N
